Regional Weather Roundup
Issued by NWS Albany, NY

Home | Current Version | Previous Version | Text Only | Print | Product List | Glossary On
Versions: 1 2 3 4 5 6 7 8 9 10 11 12 13 14 15 16 17 18 19 20 21 22 23 24 25 26 27 28 29 30 31 32 33 34 35 36 37 38 39 40 41 42 43 44 45 46 47 48 49 50
000
ASUS41 KALY 220910
RWRALY

NEW YORK STATE HOURLY WEATHER ROUNDUP
NATIONAL WEATHER SERVICE ALBANY NY
500 AM EDT MON SEP 22 2014

NOTE: "FAIR" INDICATES FEW OR NO CLOUDS BELOW 12,000 FEET WITH NO
SIGNIFICANT WEATHER AND/OR NO OBSTRUCTIONS TO VISIBILITY.

NYZ032-033-038>043-046>054-057>066-NYZ062>081-221000-
EAST


CITY           SKY/WX    TMP DP  RH WIND       PRES   REMARKS
ALBANY         PTCLDY    60  51  72 SW3       29.65R
GLENS FALLS    CLEAR     57  54  89 SW8       29.61R
POUGHKEEPSIE   CLEAR     62  56  80 SW8       29.68R
NEWBURGH         N/A    N/A N/A N/A W9        29.70R
MONTGOMERY     CLEAR     56  55  97 SW5       29.69R
WHITE PLAINS   CLEAR     63  56  78 W7        29.69R
ISLIP          CLEAR     64  57  78 W7        29.67R
NEW YORK CITY  PTCLDY    67  56  67 W12       29.70R
CENTRAL PARK   CLEAR     66  57  72 VRB6      29.73R
$$

NYZ005>009-017-018-044>046-055-056-221000-
CENTRAL


CITY           SKY/WX    TMP DP  RH WIND       PRES   REMARKS
FULTON         CLOUDY    51  47  86 NW13G20   29.78R
SYRACUSE       LGT RAIN  53  50  89 NW13G22   29.76R
ROME           CLOUDY    53  51  93 W14       29.74R
ELMIRA         LGT RAIN  56  51  84 NW10      29.78R
BINGHAMTON     CLOUDY    54  51  90 W10       29.74R
MONTICELLO     CLEAR     54  52  94 W6        29.73R
$$

NYZ026>034-041>043-221000-
NORTH


CITY           SKY/WX    TMP DP  RH WIND       PRES   REMARKS
WATERTOWN      CLOUDY    51  42  71 NW10      29.75R
FORT DRUM      NOT AVBL
MASSENA        CLOUDY    49  46  90 W12G22    29.67R
SARANAC LAKE   CLOUDY    47  45  93 W9        29.63R FOG
PLATTSBURGH    PTCLDY    56  50  80 W9        29.56R
$$

NYZ001>004-010>016-019>021-221000-
WEST


CITY           SKY/WX    TMP DP  RH WIND       PRES   REMARKS
NIAGARA FALLS  CLOUDY    50  43  77 N13       29.89R
BUFFALO        CLOUDY    50  43  77 W13G22    29.89R
DUNKIRK        LGT RAIN  50  48  93 NW10      29.92R FOG
JAMESTOWN      CLOUDY    46  45  93 NW8       29.91R
WELLSVILLE     LGT RAIN  48  46  93 NW16G24   29.85R
ROCHESTER      CLOUDY    51  48  89 NW12G21   29.85R
PENN YAN       CLOUDY    52  51  97 VRB7G17   29.80R
$$

             KEY
       WCI = WIND CHILL INDEX
       VSB = VISIBILITY
       HX  = HEAT INDEX
$$



USA.gov is the U.S. government's official web portal to all federal, state and local government web resources and services.